GW5466 Weather Reports


time (UTC)temp
C
wind
direction
speed
KPH
gust
KPH
rain 1hr
cm
rain 24hr
cm
rain mn
cm
humidity
%
barometer
mb
20260507170332 17 181 4.8 4.8 0.00 0.00 0.00 52 1016.4
20260507165802 17 239 3.2 9.7 0.00 0.00 0.00 51 1016.7
20260507165306 17 192 6.4 9.7 0.00 0.00 0.00 51 1016.7
20260507164802 17 205 8.0 9.7 0.00 0.00 0.00 51 1016.7
20260507164302 17 219 3.2 9.7 0.00 0.00 0.00 52 1016.7
20260507163732 17 246 3.2 9.7 0.00 0.00 0.00 54 1017.1
20260507163232 17 258 6.4 9.7 0.00 0.00 0.00 51 1017.1
20260507162702 17 325 6.4 6.4 0.00 0.00 0.00 52 1017.1
20260507162202 17 283 3.2 11.3 0.00 0.00 0.00 51 1017.2
20260507161702 17 238 3.2 9.7 0.00 0.00 0.00 51 1017.0
20260507161133 16 239 4.8 8.0 0.00 0.00 0.00 53 1017.2
20260507160632 16 345 3.2 9.7 0.00 0.00 0.00 55 1017.2
20260507160132 16 319 1.6 8.0 0.00 0.00 0.00 54 1017.1
20260507155632 16 194 9.7 9.7 0.00 0.00 0.00 54 1017.5
20260507155132 15 290 4.8 8.0 0.00 0.00 0.00 54 1017.4
20260507154632 15 231 4.8 9.7 0.00 0.00 0.00 54 1017.5
20260507154102 16 207 4.8 9.7 0.00 0.00 0.00 53 1017.2
20260507153602 16 265 4.8 8.0 0.00 0.00 0.00 53 1017.6
20260507153032 16 248 3.2 6.4 0.00 0.00 0.00 53 1017.2
20260507152502 16 250 0.0 14.5 0.00 0.00 0.00 53 1017.7
20260507152002 16 137 1.6 8.0 0.00 0.00 0.00 55 1017.6
20260507151432 16 275 6.4 9.7 0.00 0.00 0.00 55 1017.6
20260507151151 16 280 3.2 8.0 0.00 0.00 0.00 54 1017.9
20260507150402 16 312 1.6 11.3 0.00 0.00 0.00 55 1017.8
20260507145902 16 280 0.0 6.4 0.00 0.00 0.00 55 1017.9
20260507145332 15 251 3.2 9.7 0.00 0.00 0.00 55 1018.1
20260507144832 15 235 3.2 9.7 0.00 0.00 0.00 56 1017.8
20260507144332 15 298 3.2 4.8 0.00 0.00 0.00 56 1017.9
20260507143802 15 278 0.0 12.9 0.00 0.00 0.00 57 1018.0
20260507143232 15 215 0.0 6.4 0.00 0.00 0.00 57 1018.2
20260507142923 15 233 3.2 11.3 0.00 0.00 0.00 57 1017.9
20260507142133 14 300 8.0 8.0 0.00 0.00 0.00 58 1018.1
20260507141824 14 246 1.6 8.0 0.00 0.00 0.00 57 1018.0
20260507141102 14 261 8.0 9.7 0.00 0.00 0.00 57 1017.9
20260507140602 14 279 4.8 6.4 0.00 0.00 0.00 59 1018.2
20260507135532 13 321 1.6 4.8 0.00 0.00 0.00 62 1018.2
20260507135032 13 205 3.2 6.4 0.00 0.00 0.00 61 1018.1
20260507134724 13 293 3.2 3.2 0.00 0.00 0.00 62 1018.2
20260507134002 13 181 0.0 3.2 0.00 0.00 0.00 62 1018.2
20260507133432 12 227 3.2 3.2 0.00 0.00 0.00 63 1018.1
20260507133302 12 140 0.0 3.2 0.00 0.00 0.00 65 1018.1
20260507132802 12 215 0.0 6.4 0.00 0.00 0.00 65 1018.3
20260507132232 12 225 3.2 4.8 0.00 0.00 0.00 66 1018.1
20260507131732 11 184 1.6 4.8 0.00 0.00 0.00 67 1018.0
20260507131232 11 310 1.6 8.0 0.00 0.00 0.00 69 1018.1
20260507130702 10 339 3.2 6.4 0.00 0.00 0.00 71 1018.2
20260507130202 10 266 3.2 6.4 0.00 0.00 0.00 72 1018.5
20260507125633 10 342 3.2 8.0 0.00 0.00 0.00 73 1018.4
20260507125132 9 30 4.8 12.9 0.00 0.00 0.00 73 1018.4
20260507124602 9 16 4.8 9.7 0.00 0.00 0.00 73 1018.5
20260507124102 9 0 4.8 6.4 0.00 0.00 0.00 73 1018.5
20260507123532 8 9 8.0 8.0 0.00 0.00 0.00 73 1018.4
20260507123032 8 104 3.2 6.4 0.00 0.00 0.00 74 1018.3
20260507122502 8 0 0.0 6.4 0.00 0.00 0.00 74 1018.3
20260507122225 8 267 3.2 6.4 0.00 0.00 0.00 75 1018.2
20260507121432 8 244 3.2 8.0 0.00 0.00 0.00 74 1018.3
20260507121154 7 246 0.0 8.0 0.00 0.00 0.00 75 1018.4
20260507120402 7 62 0.0 6.4 0.00 0.00 0.00 75 1018.3
20260507115902 7 246 3.2 6.4 0.00 0.00 0.00 76 1018.3
20260507115332 7 113 1.6 3.2 0.00 0.00 0.00 76 1018.2
20260507115052 7 289 0.0 4.8 0.00 0.00 0.00 77 1018.2
20260507114302 6 175 0.0 3.2 0.00 0.00 0.00 77 1018.3
20260507113732 6 336 0.0 8.0 0.00 0.00 0.00 77 1018.2
20260507113232 6 138 3.2 6.4 0.00 0.00 0.00 77 1018.2
20260507112922 6 6 6.4 8.0 0.00 0.00 0.00 78 1017.9
20260507112203 6 16 9.7 9.7 0.00 0.00 0.00 78 1018.0
20260507111633 6 30 3.2 8.0 0.00 0.00 0.00 78 1017.9
20260507111102 6 291 3.2 6.4 0.00 0.00 0.00 78 1018.0
20260507110602 6 268 3.2 3.2 0.00 0.00 0.00 77 1018.1
20260507105609 6 83 6.4 6.4 0.00 0.00 0.00 76 1017.9
20260507105324 6 175 0.0 8.0 0.00 0.00 0.00 75 1018.0
20260507104602 6 116 4.8 6.4 0.00 0.00 0.00 76 1018.0
20260507104032 6 49 0.0 3.2 0.00 0.00 0.00 74 1018.0
20260507103532 6 104 4.8 8.0 0.00 0.00 0.00 74 1018.1
20260507103003 6 252 1.6 6.4 0.00 0.00 0.00 73 1018.1
20260507102432 6 87 4.8 8.0 0.00 0.00 0.00 72 1017.7
20260507101903 6 324 1.6 4.8 0.00 0.00 0.00 72 1017.7
20260507101555 6 35 6.4 8.0 0.00 0.00 0.00 73 1018.0
20260507100802 6 26 4.8 8.0 0.00 0.00 0.00 73 1018.0
20260507100302 6 324 3.2 8.0 0.00 0.00 0.00 72 1018.0
20260507095732 6 176 3.2 4.8 0.00 0.00 0.00 72 1018.0
20260507095424 6 62 1.6 1.6 0.00 0.00 0.00 72 1018.0
20260507094702 6 135 0.0 1.6 0.00 0.00 0.00 73 1018.1
20260507094132 5 108 0.0 1.6 0.00 0.00 0.00 73 1018.0
20260507093632 5 66 0.0 3.2 0.00 0.00 0.00 74 1018.0
20260507093132 5 58 1.6 3.2 0.00 0.00 0.00 74 1018.3
20260507092602 5 39 0.0 3.2 0.00 0.00 0.00 74 1017.9
20260507092102 5 69 0.0 3.2 0.00 0.00 0.00 74 1018.2
20260507091602 5 47 1.6 3.2 0.00 0.00 0.00 75 1018.2
20260507091102 5 61 0.0 3.2 0.00 0.00 0.00 76 1018.2
20260507090602 5 59 3.2 3.2 0.00 0.00 0.00 77 1018.1
20260507085822 5 68 0.0 3.2 0.00 0.00 0.00 77 1018.0
20260507085102 5 78 1.6 1.6 0.00 0.00 0.00 77 1018.2
20260507084602 5 50 0.0 1.6 0.00 0.00 0.00 78 1018.2
20260507084102 5 59 1.6 3.2 0.00 0.00 0.00 77 1018.2
20260507060002 9 41 0.0 1.6 0.00 0.00 0.00 59 1018.4
20260507055723 9 69 0.0 1.6 0.00 0.00 0.00 59 1018.5
20260507054932 9 54 0.0 3.2 0.00 0.00 0.00 60 1018.5
20260507054402 9 89 0.0 1.6 0.00 0.00 0.00 59 1018.4
20260507053902 9 44 0.0 1.6 0.00 0.00 0.00 59 1018.8
20260507053332 9 172 0.0 1.6 0.00 0.00 0.00 59 1018.6
20260507052832 9 50 0.0 3.2 0.00 0.00 0.00 59 1018.6
20260507052522 9 99 0.0 3.2 0.00 0.00 0.00 59 1018.6
20260507051955 9 73 0.0 1.6 0.00 0.00 0.00 59 1018.8
20260507051202 9 66 0.0 1.6 0.00 0.00 0.00 59 1018.5
20260507050632 9 66 0.0 1.6 0.00 0.00 0.00 59 1018.7
20260507050352 8 89 0.0 0.0 0.00 0.00 0.00 59 1018.6
20260507045632 8 103 0.0 1.6 0.00 0.00 0.03 59 1018.7
20260507045354 8 69 0.0 0.0 0.00 0.00 0.03 59 1018.7
20260507044602 8 62 0.0 0.0 0.00 0.00 0.03 60 1018.7
20260507044102 8 117 0.0 0.0 0.00 0.00 0.03 61 1018.7
20260507043602 8 50 0.0 0.0 0.00 0.00 0.03 64 1018.7
20260507043032 7 50 0.0 1.6 0.00 0.00 0.03 67 1018.8
20260507042753 7 129 0.0 0.0 0.00 0.00 0.03 68 1018.5
20260507042002 7 63 0.0 1.6 0.00 0.00 0.03 71 1018.5
20260507041502 7 95 0.0 1.6 0.00 0.00 0.03 72 1018.5
20260507040932 7 55 1.6 3.2 0.00 0.00 0.03 69 1018.5
20260507040432 7 66 1.6 3.2 0.00 0.00 0.03 68 1018.6
20260507040153 7 103 0.0 1.6 0.00 0.00 0.03 67 1018.7
20260507035402 7 89 0.0 1.6 0.00 0.00 0.03 67 1018.8
20260507034832 7 66 0.0 1.6 0.00 0.00 0.03 67 1019.0
20260507034302 7 86 0.0 1.6 0.00 0.00 0.03 67 1018.8
20260507033802 7 62 0.0 1.6 0.00 0.00 0.03 68 1018.7
20260507033524 7 117 0.0 1.6 0.00 0.00 0.03 67 1018.6
20260507032732 7 77 0.0 1.6 0.00 0.00 0.03 69 1018.7
20260507032718 7 39 0.0 1.6 0.00 0.00 0.03 69 1018.5
20260507031732 7 49 0.0 1.6 0.00 0.00 0.03 68 1018.6
20260507031232 7 66 0.0 1.6 0.00 0.00 0.03 68 1018.6
20260507030732 7 65 0.0 1.6 0.00 0.00 0.03 67 1018.5
20260507030453 7 89 0.0 1.6 0.00 0.00 0.03 66 1018.8
20260507025702 8 58 0.0 1.6 0.00 0.00 0.03 65 1018.6
20260507025202 8 72 0.0 1.6 0.00 0.00 0.03 63 1018.8
20260507024702 8 79 0.0 1.6 0.00 0.00 0.03 63 1018.7
20260507024140 8 67 1.6 1.6 0.00 0.00 0.03 60 1018.5
20260507023852 8 55 1.6 1.6 0.00 0.00 0.03 59 1018.3
20260507023132 9 113 0.0 1.6 0.00 0.00 0.03 57 1018.5
20260507022602 9 50 0.0 1.6 0.00 0.00 0.03 58 1018.1
20260507022032 9 66 0.0 1.6 0.00 0.00 0.03 56 1018.2
20260507021502 9 84 0.0 1.6 0.00 0.00 0.03 57 1018.1
20260507021002 9 103 0.0 1.6 0.00 0.00 0.03 56 1017.9
20260507020651 10 59 0.0 1.6 0.00 0.00 0.03 55 1018.3
20260507015932 10 89 0.0 1.6 0.00 0.00 0.03 54 1018.0
20260507015432 10 53 1.6 1.6 0.00 0.00 0.03 53 1018.0
20260507014903 10 73 0.0 1.6 0.00 0.00 0.03 52 1017.9
20260507014847 10 59 1.6 3.2 0.00 0.00 0.03 51 1017.9
20260507013902 11 50 0.0 1.6 0.00 0.00 0.03 49 1018.0
20260507013624 11 31 0.0 0.0 0.00 0.00 0.03 48 1018.1
20260507012902 11 62 0.0 1.6 0.00 0.00 0.03 47 1017.9
20260507012402 11 66 0.0 1.6 0.00 0.00 0.03 45 1017.9
20260507011902 12 37 0.0 1.6 0.00 0.00 0.03 42 1017.8
20260507011332 12 34 0.0 1.6 0.00 0.00 0.03 40 1018.0
20260507010802 12 42 0.0 3.2 0.00 0.00 0.03 40 1017.8
20260507010302 12 62 0.0 1.6 0.00 0.00 0.03 39 1017.9
20260507005732 12 55 0.0 3.2 0.00 0.00 0.03 38 1017.8
20260507005232 13 62 0.0 3.2 0.00 0.00 0.03 38 1017.8
20260507004702 13 37 3.2 3.2 0.00 0.00 0.03 37 1017.8
20260507004202 13 57 3.2 4.8 0.00 0.00 0.03 37 1017.9
20260507003702 13 56 3.2 3.2 0.00 0.00 0.03 36 1017.7
20260507003352 13 40 1.6 4.8 0.00 0.00 0.03 34 1017.9
20260507002602 13 164 0.0 6.4 0.00 0.00 0.03 35 1017.8
20260507002032 13 21 1.6 6.4 0.00 0.00 0.03 36 1017.7
20260507002019 14 54 0.0 6.4 0.00 0.00 0.03 35 1017.8
20260507001002 14 337 0.0 6.4 0.00 0.00 0.03 36 1017.7
20260507000502 14 101 3.2 4.8 0.00 0.00 0.03 35 1017.7
20260507000002 14 313 1.6 6.4 0.00 0.00 0.03 34 1017.6
20260506235652 14 352 0.0 4.8 0.00 0.00 0.03 35 1017.6
20260506235153 14 24 3.2 4.8 0.00 0.00 0.03 35 1017.7
20260506234654 14 50 3.2 4.8 0.00 0.00 0.03 34 1017.6
20260506233932 14 62 3.2 6.4 0.00 0.00 0.03 34 1017.7
20260506233402 14 40 3.2 6.4 0.00 0.00 0.03 34 1017.8
20260506232902 14 94 3.2 9.7 0.00 0.00 0.03 35 1018.0
20260506232332 14 99 1.6 8.0 0.00 0.00 0.03 34 1017.8
20260506231832 14 21 6.4 11.3 0.00 0.00 0.03 33 1017.9
20260506231332 15 182 1.6 9.7 0.00 0.00 0.03 33 1017.7
20260506231051 15 9 3.2 6.4 0.00 0.00 0.03 35 1017.7
20260506230332 15 74 6.4 6.4 0.00 0.00 0.03 32 1017.8
20260506230021 15 299 0.0 4.8 0.00 0.00 0.03 34 1017.9
20260506225232 15 353 3.2 6.4 0.00 0.00 0.03 34 1017.9
20260506224732 15 5 3.2 8.0 0.00 0.00 0.03 33 1017.9
20260506224232 15 54 3.2 9.7 0.00 0.00 0.03 33 1017.9
20260506223702 15 358 4.8 9.7 0.00 0.00 0.03 32 1018.1
20260506223202 15 46 3.2 9.7 0.00 0.00 0.03 33 1017.8
20260506222632 15 336 4.8 4.8 0.00 0.00 0.03 34 1017.9
20260506222132 16 10 4.8 9.7 0.00 0.00 0.03 33 1018.2
20260506221854 16 0 6.4 8.0 0.00 0.00 0.03 33 1018.2
20260506221102 16 41 0.0 6.4 0.00 0.00 0.03 31 1017.9
20260506220532 16 77 3.2 8.0 0.00 0.00 0.03 31 1018.0
20260506220032 16 15 6.4 17.7 0.00 0.00 0.03 31 1018.3
20260506215532 16 55 0.0 4.8 0.00 0.00 0.03 31 1018.0
20260506215002 16 248 3.2 9.7 0.00 0.00 0.03 34 1018.3
20260506214919 16 5 4.8 9.7 0.00 0.00 0.03 33 1018.3
20260506213932 16 276 1.6 4.8 0.00 0.00 0.03 32 1018.4
20260506213432 16 55 1.6 3.2 0.00 0.00 0.03 32 1018.5
20260506212902 16 358 4.8 8.0 0.00 0.00 0.03 33 1018.5
20260506212332 15 62 6.4 6.4 0.00 0.00 0.03 34 1018.5
20260506211832 16 14 4.8 24.1 0.00 0.00 0.03 31 1018.7
20260506211332 16 62 4.8 8.0 0.00 0.00 0.03 33 1018.6
20260506210802 16 77 1.6 6.4 0.00 0.00 0.03 35 1018.7
20260506210302 16 353 3.2 8.0 0.00 0.00 0.03 33 1018.9
20260506205951 15 37 3.2 9.7 0.00 0.00 0.03 33 1019.1
20260506205232 15 349 1.6 6.4 0.00 0.00 0.03 32 1018.9
20260506204702 15 341 6.4 19.3 0.00 0.00 0.03 32 1019.2
20260506204202 15 345 4.8 8.0 0.00 0.00 0.03 34 1019.2
20260506203702 15 39 3.2 8.0 0.00 0.00 0.03 31 1019.0
20260506203424 15 5 4.8 9.7 0.00 0.00 0.03 32 1019.1
20260506202852 15 0 1.6 11.3 0.00 0.00 0.03 32 1019.4
20260506202132 15 38 0.0 11.3 0.00 0.00 0.03 32 1019.5
20260506201602 15 59 1.6 6.4 0.00 0.00 0.03 33 1019.6
20260506201547 15 54 6.4 8.0 0.00 0.00 0.03 34 1019.6
20260506200602 15 349 3.2 8.0 0.00 0.00 0.03 34 1019.6
20260506195602 16 269 0.0 6.4 0.00 0.00 0.03 34 1019.7
20260506195102 16 51 6.4 9.7 0.00 0.00 0.03 30 1019.6
20260506194602 16 14 3.2 22.5 0.00 0.00 0.03 34 1019.6
20260506194102 15 20 0.0 6.4 0.00 0.00 0.03 40 1019.8
20260506193532 15 214 1.6 6.4 0.00 0.00 0.03 32 1019.7
20260506193253 15 89 3.2 8.0 0.00 0.00 0.03 34 1019.9
20260506192502 15 19 3.2 8.0 0.00 0.00 0.03 35 1019.8
20260506191932 15 352 8.0 9.7 0.00 0.00 0.03 31 1019.9
20260506191432 15 91 1.6 6.4 0.00 0.00 0.03 34 1019.8
20260506190932 15 7 3.2 3.2 0.00 0.00 0.03 36 1020.0
20260506190432 14 43 6.4 11.3 0.00 0.00 0.03 34 1020.0
20260506185432 15 338 6.4 12.9 0.00 0.00 0.03 34 1020.4
20260506184932 15 335 4.8 9.7 0.00 0.00 0.03 33 1020.0
20260506184402 15 344 1.6 4.8 0.00 0.00 0.03 38 1020.1
20260506183902 14 33 4.8 4.8 0.00 0.00 0.03 42 1019.9
20260506183332 14 36 3.2 8.0 0.00 0.00 0.03 34 1020.1
20260506182832 14 44 3.2 6.4 0.00 0.00 0.03 37 1020.2
20260506182306 14 3 3.2 9.7 0.00 0.00 0.03 35 1020.5
20260506182032 14 1 3.2 8.0 0.00 0.00 0.03 38 1020.2
20260506181532 13 6 4.8 6.4 0.00 0.00 0.03 36 1020.8
20260506181002 13 61 3.2 6.4 0.00 0.00 0.03 37 1020.5
20260506180502 13 64 3.2 8.0 0.00 0.00 0.03 36 1020.6
20260506180222 13 77 3.2 4.8 0.00 0.00 0.03 37 1020.4
20260506175502 13 42 1.6 3.2 0.00 0.00 0.03 38 1020.5
20260506175449 13 21 6.4 9.7 0.00 0.00 0.03 37 1020.5
20260506174432 13 21 3.2 9.7 0.00 0.00 0.03 39 1020.7
20260506173932 13 44 0.0 4.8 0.00 0.00 0.03 37 1020.4
20260506173402 13 85 0.0 9.7 0.00 0.00 0.03 37 1020.8
20260506172902 13 18 3.2 11.3 0.00 0.00 0.03 37 1020.9
20260506172332 13 58 3.2 4.8 0.00 0.00 0.03 39 1020.6
20260506171832 14 329 6.4 9.7 0.00 0.00 0.03 35 1020.9
20260506171524 14 11 1.6 8.0 0.00 0.00 0.03 36 1020.8
20260506170802 14 19 3.2 6.4 0.00 0.00 0.03 38 1020.8